Weather History for West Point, VA

Change the Weather History Date:

Sunday, July 28, 2013

  Actual Average (KRIC) Record (KRIC)
Temperature  
Mean Temperature 78 °F 79 °F  
Max Temperature 86 °F 89 °F 102 °F (1952)
Min Temperature 70 °F 69 °F 52 °F (1962)
Degree Days  
Heating Degree Days 0 0  
Month to date heating degree days 0  
Since 1 June heating degree days 7  
Since 1 July heating degree days 0  
Cooling Degree Days 13 14  
Month to date cooling degree days 401  
Year to date cooling degree days 877  
Since 1 June cooling degree days 716  
Growing Degree Days 28 (Base 50)    
Moisture  
Dew Point 71 °F    
Average Humidity 81    
Maximum Humidity 100    
Minimum Humidity 60    
Precipitation  
Precipitation 0.23 in 0.15 in 2.14 in (1922)
Month to date precipitation 4.04  
Year to date precipitation 24.86  
Snow  
Snow 0.00 in 0.00 in 0.00 in (2002)
Month to date snowfall 0.0  
Since 1 July snowfall 0.0  
Snow Depth -    
Sea Level Pressure  
Sea Level Pressure 29.96 in    
Wind  
Wind Speed 4 mph (South)    
Max Wind Speed 16 mph    
Max Gust Speed 22 mph    
Visibility 10 miles    
Events      
T = Trace of Precipitation, MM = Missing Value Source: NWS Daily Summary

Daily Weather History Graph

Daily Weather History Graph

Search for Another Location

Airport:

Trip Planner

Search our weather history database for the weather conditions in past years. The results will help you decide how hot, cold, wet, or windy it might be!

Date:

Astronomy

Jul. 28, 2013 Rise Set
Actual Time 6:08 AM EDT 8:18 PM EDT
Civil Twilight 5:38 AM EDT 8:47 PM EDT
Nautical Twilight 5:02 AM EDT 9:23 PM EDT
Astronomical Twilight 4:23 AM EDT 10:02 PM EDT
Moon 11:48 PM EDT 12:38 PM EDT
Length of Visible Light 15h 09m
Length of Day
14h 10m
Waning Gibbous, 61% of the Moon is Illuminated
Jul 28
Waning Gibbous
Jul 29
Last Quarter
Aug 6
New
Aug 14
First Quarter
Aug 20
Full

Hourly Weather History & Observations

Time (EDT) Temp. Heat Index Dew Point Humidity Pressure Visibility Wind Dir Wind Speed Gust Speed Precip Events Conditions
12:15 AM 73.6 °F - 65.5 °F 76% 29.97 in 10.0 mi Calm Calm - N/A   Clear
12:35 AM 73.6 °F - 66.2 °F 78% 29.96 in 10.0 mi Calm Calm - N/A   Clear
12:55 AM 73.6 °F - 66.2 °F 78% 29.97 in 10.0 mi SSE 4.6 mph - N/A   Clear
1:15 AM 73.9 °F - 66.6 °F 78% 29.96 in 10.0 mi SE 4.6 mph - N/A   Clear
1:35 AM 74.1 °F - 67.1 °F 79% 29.97 in 10.0 mi SSE 4.6 mph - N/A   Clear
1:55 AM 74.3 °F - 67.3 °F 79% 29.96 in 10.0 mi South 4.6 mph - N/A   Scattered Clouds
2:15 AM 73.9 °F - 67.1 °F 79% 29.96 in 10.0 mi SSE 5.8 mph - N/A   Clear
2:35 AM 73.6 °F - 67.6 °F 82% 29.96 in 10.0 mi SSE 6.9 mph - N/A   Clear
2:55 AM 74.3 °F - 67.8 °F 80% 29.95 in 10.0 mi SSE 5.8 mph - N/A   Clear
3:15 AM 74.3 °F - 68.4 °F 82% 29.95 in 10.0 mi South 3.5 mph - N/A   Scattered Clouds
3:35 AM 74.3 °F - 68.5 °F 82% 29.95 in 10.0 mi South 4.6 mph - N/A   Mostly Cloudy
3:55 AM 74.3 °F - 68.5 °F 82% 29.95 in 10.0 mi South 4.6 mph - N/A   Mostly Cloudy
4:15 AM 73.9 °F - 68.9 °F 84% 29.95 in 10.0 mi South 3.5 mph - N/A   Scattered Clouds
4:35 AM 73.6 °F - 69.3 °F 86% 29.95 in 10.0 mi SSE 5.8 mph - N/A   Clear
4:55 AM 73.9 °F - 69.8 °F 87% 29.96 in 10.0 mi SE 6.9 mph - N/A   Clear
5:15 AM 74.3 °F - 70.0 °F 86% 29.96 in 10.0 mi SE 5.8 mph - N/A   Clear
5:35 AM 74.7 °F - 70.7 °F 87% 29.96 in 10.0 mi SSE 6.9 mph - N/A   Clear
5:55 AM 75.0 °F - 71.1 °F 87% 29.96 in 10.0 mi SSE 5.8 mph - N/A   Mostly Cloudy
6:15 AM 74.5 °F - 70.9 °F 88% 29.96 in 10.0 mi SSE 5.8 mph - N/A   Scattered Clouds
6:35 AM 74.3 °F - 71.6 °F 91% 29.96 in 10.0 mi SSE 3.5 mph - N/A   Mostly Cloudy
6:55 AM 74.7 °F - 72.1 °F 92% 29.97 in 10.0 mi SSE 4.6 mph - N/A   Overcast
7:15 AM 75.0 °F - 71.8 °F 90% 29.97 in 10.0 mi SSE 3.5 mph - N/A   Mostly Cloudy
7:35 AM 74.7 °F - 72.0 °F 91% 29.96 in 10.0 mi SSE 4.6 mph - N/A   Scattered Clouds
7:55 AM 75.2 °F - 72.5 °F 91% 29.96 in 10.0 mi South 3.5 mph - N/A   Scattered Clouds
8:15 AM 75.7 °F - 72.7 °F 90% 29.96 in 10.0 mi SSE 5.8 mph - N/A   Scattered Clouds
8:35 AM 75.9 °F - 73.0 °F 91% 29.96 in 10.0 mi South 4.6 mph - N/A   Clear
8:55 AM 76.1 °F - 73.0 °F 90% 29.96 in 10.0 mi South 4.6 mph - N/A   Scattered Clouds
9:15 AM 76.1 °F - 73.4 °F 91% 29.96 in 10.0 mi South 4.6 mph - N/A   Scattered Clouds
9:35 AM 77.0 °F - 73.8 °F 90% 29.96 in 10.0 mi SSW 3.5 mph - N/A   Clear
9:55 AM 77.9 °F - 73.9 °F 88% 29.96 in 10.0 mi South 4.6 mph - N/A   Clear
10:15 AM 78.3 °F - 73.9 °F 87% 29.96 in 10.0 mi SSE 4.6 mph - N/A   Scattered Clouds
10:35 AM 79.2 °F - 73.8 °F 83% 29.96 in 10.0 mi SSW 5.8 mph - N/A   Mostly Cloudy
10:55 AM 80.1 °F 84.6 °F 74.3 °F 82% 29.95 in 10.0 mi South 4.6 mph - N/A   Mostly Cloudy
11:15 AM 80.8 °F 85.6 °F 73.4 °F 78% 29.96 in 10.0 mi SW 5.8 mph - N/A   Scattered Clouds
11:35 AM 81.7 °F 87.3 °F 73.8 °F 77% 29.96 in 10.0 mi SW 5.8 mph - N/A   Scattered Clouds
11:55 AM 81.9 °F 87.0 °F 73.0 °F 74% 29.96 in 10.0 mi South 4.6 mph - N/A   Clear
12:15 PM 82.4 °F 88.2 °F 73.4 °F 74% 29.96 in 10.0 mi SW 5.8 mph - N/A   Clear
12:35 PM 82.8 °F 89.2 °F 73.9 °F 75% 29.95 in 10.0 mi South 4.6 mph - N/A   Scattered Clouds
12:55 PM 83.5 °F 90.0 °F 73.4 °F 72% 29.95 in 10.0 mi South 4.6 mph - N/A   Scattered Clouds
1:15 PM 83.3 °F 89.3 °F 73.2 °F 71% 29.95 in 10.0 mi South 4.6 mph - N/A   Scattered Clouds
1:35 PM 83.8 °F 91.1 °F 74.3 °F 73% 29.95 in 10.0 mi SSE 5.8 mph - N/A   Mostly Cloudy
1:55 PM 85.1 °F 92.2 °F 73.6 °F 68% 29.94 in 10.0 mi SSW 6.9 mph - N/A   Scattered Clouds
2:15 PM 84.4 °F 90.6 °F 72.9 °F 68% 29.94 in 10.0 mi SW 8.1 mph - N/A   Scattered Clouds
2:35 PM 84.0 °F 90.2 °F 72.9 °F 69% 29.94 in 10.0 mi WSW 6.9 mph - N/A   Scattered Clouds
2:55 PM 83.7 °F 89.4 °F 72.5 °F 69% 29.93 in 10.0 mi SW 3.5 mph - N/A   Mostly Cloudy
3:15 PM 85.1 °F 91.5 °F 72.7 °F 66% 29.92 in 10.0 mi SSW 5.8 mph - N/A   Scattered Clouds
3:35 PM 86.0 °F 93.4 °F 73.4 °F 66% 29.92 in 10.0 mi SSE 5.8 mph - N/A   Clear
3:55 PM 86.2 °F 92.6 °F 72.3 °F 63% 29.92 in 10.0 mi South 6.9 mph - N/A   Scattered Clouds
4:15 PM 86.7 °F 92.9 °F 72.0 °F 61% 29.92 in 10.0 mi SSE 8.1 mph - N/A   Scattered Clouds
4:35 PM 86.7 °F 93.3 °F 72.5 °F 62% 29.92 in 10.0 mi South 5.8 mph - N/A   Clear
4:55 PM 86.9 °F 93.3 °F 72.0 °F 61% 29.92 in 10.0 mi South 8.1 mph - N/A   Scattered Clouds
5:15 PM 85.6 °F 91.1 °F 71.4 °F 62% 29.92 in 10.0 mi South 4.6 mph - N/A   Scattered Clouds
5:35 PM 86.9 °F 92.9 °F 71.6 °F 60% 29.92 in 10.0 mi South 3.5 mph - N/A   Scattered Clouds
5:55 PM 85.6 °F 91.8 °F 72.1 °F 64% 29.93 in 10.0 mi South 6.9 mph - N/A   Mostly Cloudy
6:15 PM 86.0 °F 93.8 °F 73.9 °F 67% 29.91 in 10.0 mi SE 9.2 mph - N/A   Mostly Cloudy
6:35 PM 85.5 °F 93.8 °F 74.5 °F 70% 29.91 in 10.0 mi SSE 6.9 mph - N/A   Scattered Clouds
6:55 PM 84.9 °F 91.8 °F 73.4 °F 68% 29.91 in 10.0 mi SSE 8.1 mph - N/A   Clear
7:15 PM 82.9 °F 89.7 °F 74.3 °F 75% 29.93 in 10.0 mi South 6.9 mph - N/A   Clear
7:35 PM 82.6 °F 87.8 °F 72.5 °F 71% 29.93 in 10.0 mi South 4.6 mph - N/A   Clear
7:55 PM 80.8 °F 85.1 °F 72.1 °F 75% 29.97 in 10.0 mi NW 16.1 mph 21.9 mph N/A   Mostly Cloudy
8:15 PM 75.0 °F - 68.7 °F 81% 29.99 in 10.0 mi NNW 6.9 mph - N/A   Overcast
8:35 PM 72.0 °F - 70.3 °F 95% 29.97 in 10.0 mi North 4.6 mph - N/A   Overcast
8:55 PM 71.2 °F - 70.3 °F 97% 29.98 in 10.0 mi ENE 3.5 mph - N/A   Overcast
9:15 PM 71.2 °F - 70.7 °F 98% 29.99 in 10.0 mi East 4.6 mph - N/A   Overcast
9:35 PM 70.9 °F - 70.7 °F 99% 29.99 in 10.0 mi East 3.5 mph - N/A   Mostly Cloudy
9:55 PM 71.1 °F - 70.3 °F 98% 29.98 in 10.0 mi East 5.8 mph - N/A   Mostly Cloudy
10:15 PM 71.2 °F - 70.3 °F 97% 29.99 in 10.0 mi East 3.5 mph - N/A   Scattered Clouds
10:35 PM 71.6 °F - 70.7 °F 97% 29.99 in 10.0 mi Calm Calm - N/A   Mostly Cloudy
10:55 PM 72.5 °F - 70.9 °F 95% 30.00 in 10.0 mi Calm Calm - N/A   Overcast
11:15 PM 72.9 °F - 72.1 °F 98% 30.00 in 1.8 mi East 6.9 mph - 0.23 in   Overcast
11:35 PM 72.0 °F - 72.0 °F 100% 30.01 in 10.0 mi Calm Calm - 0.23 in   Overcast
11:55 PM 72.0 °F - 72.0 °F 100% 30.01 in 10.0 mi Calm Calm - 0.23 in   Overcast